Wind_Speed
22 21 21 21 20 19 19 19 19 19 19 19 19 19 20 19 19 19 19 19 18 18 18 18 17 16 16 15 15 14 14 14 13 13 12 12 12 12 12 13 13 14 14
23 22 22 21 22 22 21 20 20 20 20 20 20 20 21 22 21 20 20 20 20 20 20 20 19 18 18 17 17 16 16 16 16 15 15 15 15 15 15 15 16 16 17
23 24 24 23 23 23 23 22 22 22 22 22 21 21 22 22 22 22 21 22 22 22 21 21 21 21 20 19 19 18 18 18 18 18 18 18 17 17 18 18 18 19 19
23 24 24 25 25 25 25 24 24 24 24 24 24 24 23 23 23 23 22 23 23 24 23 23 23 22 22 21 22 21 20 21 20 20 20 20 20 20 21 21 21 21 21
24 24 25 25 25 26 26 26 26 26 26 25 25 25 25 24 24 24 24 24 25 25 25 25 25 24 24 23 23 23 22 22 22 22 22 22 22 22 23 23 23 23 23
24 25 26 26 27 27 27 28 27 27 27 26 26 27 27 26 26 25 26 26 26 26 27 27 27 26 26 25 25 25 25 24 23 23 24 24 24 24 24 25 25 25 25
25 25 26 27 28 28 28 28 28 29 28 28 28 28 29 29 27 27 27 27 26 26 26 27 27 26 26 26 26 26 25 25 25 25 25 26 26 26 26 26 27 27 27
26 27 27 28 29 29 28 29 30 30 30 30 30 30 30 30 29 28 28 28 28 27 26 26 26 27 27 27 27 26 26 26 26 26 27 28 28 28 28 28 29 29 29
26 27 28 29 29 29 29 29 30 30 30 30 30 30 30 30 30 28 29 29 29 29 28 27 28 28 27 27 27 27 27 27 27 26 27 28 29 30 30 30 31 32 32
25 27 28 30 30 30 30 31 31 31 31 31 31 31 31 31 31 29 28 29 28 28 28 28 28 28 27 27 28 28 28 27 27 27 28 28 28 30 31 32 33 34 34
26 27 29 30 30 30 30 31 31 31 31 31 31 31 31 30 30 29 29 29 29 29 28 28 28 28 29 28 28 29 30 29 29 29 30 30 31 31 32 33 34 35 36
26 27 29 29 29 29 30 30 31 31 31 31 31 31 31 31 31 31 30 29 29 28 29 30 29 29 30 31 30 30 31 30 31 31 32 33 33 34 34 35 36 37 37
26 26 27 28 29 29 29 30 30 31 31 31 31 31 31 31 31 31 31 30 30 29 30 30 30 31 30 31 31 31 31 32 32 33 33 34 34 36 36 36 37 37 38
25 25 26 27 28 28 28 29 30 30 30 31 31 30 30 31 31 31 31 31 31 30 30 30 30 31 30 30 30 31 31 31 33 33 34 35 35 36 37 37 38 38 39
24 25 26 26 27 27 27 28 28 29 29 29 29 29 29 30 31 32 31 31 31 31 31 30 31 31 31 31 32 32 32 33 33 33 33 34 34 35 36 37 38 38 38
24 25 25 25 26 26 27 27 27 28 28 29 29 28 28 29 30 30 30 30 30 31 31 31 30 30 31 31 31 31 32 33 33 34 34 33 34 34 35 36 37 37 37
25 25 26 26 26 27 27 27 27 27 27 27 27 27 27 28 28 28 29 30 30 30 31 31 30 31 30 30 29 30 32 33 33 32 32 33 32 33 34 35 35 35 35
25 25 26 26 26 26 26 26 26 26 26 26 25 26 26 27 27 28 29 29 30 30 30 30 30 30 30 30 30 30 31 32 32 31 30 30 31 32 32 32 32 32 33
24 24 25 25 26 26 27 27 26 26 25 25 25 26 26 26 26 27 27 27 28 28 29 29 29 29 29 29 29 28 28 29 29 29 29 30 30 30 30 30 30 31 31
25 25 25 25 26 26 26 26 26 25 25 25 25 25 25 25 25 26 27 27 27 27 27 28 27 28 28 27 27 28 28 28 28 27 28 29 29 29 28 28 29 30 30
25 25 25 26 26 26 26 26 25 24 24 24 24 24 24 24 25 25 25 25 26 26 25 25 25 25 26 27 27 27 27 27 27 27 27 26 25 25 26 27 27 27 27
25 24 25 25 25 25 25 25 24 24 23 23 23 22 22 21 22 22 22 22 23 23 24 24 25 24 24 24 24 25 25 24 25 25 24 24 24 24 24 24 24 24 24
23 23 23 22 22 22 22 23 23 22 22 21 20 19 18 18 18 18 19 19 19 20 21 22 22 21 21 21 21 21 21 21 21 21 20 21 21 21 21 21 21 21 21
20 20 20 21 21 20 20 21 21 20 20 20 19 18 17 17 17 16 17 17 18 18 19 19 19 19 19 19 19 19 19 18 18 18 18 18 18 18 18 18 18 19 19
18 18 18 18 18 18 19 19 19 19 19 18 17 17 17 16 16 15 15 15 15 15 15 16 17 16 16 16 17 16 15 15 15 14 14 14 15 15 15 15 16 16 17
16 15 15 15 15 15 16 16 16 16 16 15 15 14 14 13 13 13 13 12 12 12 12 12 12 12 13 13 12 11 11 11 11 11 11 11 12 12 12 13 14 14 14
Wind_Direction
247 249 252 255 257 260 262 265 266 266 268 267 268 267 266 266 265 267 266 264 264 264 263 264 261 258 258 260 261 260 261 262 263 264 265 266 266 268 270 273 275 275 276
247 250 253 255 259 261 262 262 263 267 267 267 268 269 267 265 265 264 264 263 261 262 263 262 261 259 258 258 259 259 260 261 264 265 266 267 268 270 271 272 274 275 275
250 251 252 254 258 260 262 262 263 264 266 267 267 267 266 265 266 265 264 265 263 262 263 263 262 260 260 258 259 261 260 261 262 265 267 268 269 270 271 273 274 275 275
251 252 253 254 257 259 260 262 264 265 266 267 268 267 266 264 264 265 265 265 266 263 263 263 263 262 261 261 261 261 260 261 261 263 266 268 269 271 274 276 276 277 276
253 254 255 255 257 259 260 261 264 265 267 267 268 266 265 264 262 263 264 265 266 264 262 262 262 262 261 262 261 259 260 262 264 265 267 269 271 273 275 277 277 277 278
254 254 255 257 258 260 261 263 263 264 266 267 268 266 266 266 265 263 262 263 265 264 261 260 260 262 261 260 260 260 260 262 264 265 267 268 269 271 274 277 277 277 278
256 256 255 256 258 260 261 262 263 264 264 265 267 265 264 265 266 266 262 260 261 262 261 259 258 259 259 258 258 260 262 263 264 264 267 269 270 271 274 277 277 278 279
259 259 258 257 258 260 261 261 262 263 264 265 266 265 263 263 263 264 261 259 259 261 262 258 256 258 258 257 258 258 261 264 266 266 267 269 272 274 275 276 278 278 279
262 261 260 260 261 261 261 261 262 263 263 265 266 265 263 261 262 263 260 258 259 260 260 258 257 257 255 256 256 258 261 264 265 265 266 268 271 273 274 275 277 279 279
265 265 263 263 261 261 261 261 262 263 263 265 265 266 264 261 261 261 260 259 258 259 258 258 258 255 255 257 257 259 261 262 263 264 267 270 272 273 274 275 276 278 279
267 266 265 265 263 263 262 262 262 263 265 265 265 265 263 261 259 259 259 259 259 258 258 256 256 257 256 258 260 260 259 261 263 264 267 271 273 275 277 276 277 279 280
268 266 265 264 263 264 263 263 263 264 265 265 265 264 263 261 259 258 258 258 258 258 256 255 254 256 258 259 260 260 261 263 265 265 267 269 272 273 276 277 278 280 280
271 269 266 263 262 264 264 264 264 264 265 265 264 263 263 261 259 258 258 257 257 257 256 256 255 256 257 258 258 260 261 262 265 267 267 268 271 273 275 277 279 281 280
272 270 267 266 264 264 265 266 266 265 266 266 265 265 262 259 259 258 257 256 256 256 256 256 256 257 258 259 259 259 259 262 266 267 268 270 271 273 275 277 279 280 282
271 271 269 267 264 263 265 266 266 266 266 266 266 265 262 259 258 258 258 257 255 255 256 257 257 256 259 258 257 258 260 263 265 267 269 270 271 271 274 277 278 281 283
272 271 269 266 264 263 264 264 266 266 267 266 266 263 260 259 259 258 257 256 255 256 256 257 258 258 260 258 258 260 262 264 265 267 269 270 271 272 274 277 278 281 283
273 270 270 268 266 265 264 265 267 267 267 266 264 262 260 260 258 258 256 255 255 256 256 257 258 258 259 259 261 263 263 263 265 268 268 270 270 273 276 278 281 282 284
275 272 270 269 267 264 264 265 268 267 266 263 262 262 261 261 258 256 256 254 255 255 255 256 257 258 258 259 260 262 263 263 265 267 269 271 273 275 278 281 282 284 286
275 274 273 270 268 267 266 266 267 267 266 264 262 262 263 263 259 256 255 255 254 253 253 255 257 257 258 259 260 260 261 263 264 266 269 272 274 275 279 282 284 286 288
275 274 273 272 271 269 268 267 267 267 266 264 263 263 263 261 259 257 256 256 255 254 253 255 256 257 257 257 259 259 259 262 265 267 271 274 276 278 281 286 287 288 291
275 275 273 272 270 269 268 267 267 266 265 264 264 263 262 261 260 258 256 256 255 254 253 255 257 258 258 257 257 258 260 264 266 268 273 276 279 283 286 288 289 292 294
275 274 274 272 270 269 268 267 266 264 264 265 264 262 261 260 260 258 257 256 255 254 252 253 255 256 257 257 256 258 261 265 266 269 274 278 283 287 290 292 293 295 296
277 275 275 274 272 270 269 267 266 264 262 261 258 256 256 258 259 257 257 256 255 253 251 251 254 255 256 256 258 261 263 266 271 274 278 281 284 287 291 293 296 298 300
277 275 275 275 272 270 269 268 267 265 261 259 257 256 255 256 256 256 255 253 252 253 251 250 250 253 256 257 261 263 266 271 275 278 280 282 286 290 294 296 300 304 307
280 279 277 276 272 269 267 265 263 261 257 254 254 253 252 252 251 251 251 250 249 248 248 248 249 251 253 256 260 263 267 274 277 280 283 288 292 295 298 304 308 311 313
282 280 278 275 271 267 264 261 258 253 250 248 249 247 248 250 249 246 245 247 248 243 243 242 246 249 253 254 257 260 266 273 278 284 289 293 296 302 308 314 318 320 321
Height
5873 5874 5875 5876 5877 5878 5878 5879 5879 5879 5880 5880 5880 5881 5882 5882 5883 5883 5883 5884 5884 5885 5885 5885 5886 5887 5888 5889 5889 5890 5890 5891 5891 5891 5892 5892 5892 5892 5892 5892 5892 5892 5892
5868 5869 5871 5871 5873 5873 5874 5875 5875 5875 5875 5875 5876 5877 5877 5878 5878 5879 5879 5879 5880 5880 5881 5881 5882 5883 5884 5885 5886 5886 5887 5887 5888 5888 5889 5889 5889 5889 5889 5889 5889 5889 5889
5863 5864 5865 5866 5867 5868 5869 5869 5870 5870 5870 5871 5871 5872 5872 5873 5874 5874 5875 5875 5875 5876 5877 5877 5878 5879 5880 5881 5881 5882 5883 5883 5884 5884 5885 5885 5885 5885 5885 5885 5885 5885 5884
5857 5859 5860 5861 5862 5863 5863 5864 5864 5865 5865 5866 5866 5866 5867 5868 5869 5869 5870 5870 5870 5871 5872 5872 5873 5874 5875 5876 5877 5878 5878 5879 5879 5880 5880 5880 5881 5881 5881 5880 5880 5880 5880
5852 5853 5854 5855 5856 5857 5858 5858 5859 5859 5860 5860 5860 5861 5861 5862 5863 5864 5864 5865 5865 5866 5866 5867 5868 5869 5870 5871 5872 5872 5873 5874 5874 5875 5875 5876 5876 5876 5876 5875 5875 5875 5874
5846 5847 5848 5849 5850 5851 5852 5852 5853 5853 5854 5854 5854 5855 5855 5856 5857 5858 5858 5859 5859 5860 5860 5861 5862 5863 5864 5865 5866 5867 5868 5869 5869 5870 5870 5870 5870 5870 5870 5870 5870 5869 5869
5840 5841 5842 5842 5843 5844 5845 5845 5846 5847 5848 5848 5848 5849 5850 5850 5851 5852 5852 5853 5853 5854 5854 5855 5856 5857 5858 5860 5861 5862 5862 5863 5863 5864 5864 5864 5865 5865 5864 5864 5864 5863 5863
5834 5834 5835 5836 5836 5836 5837 5838 5839 5840 5840 5841 5842 5842 5843 5844 5845 5845 5846 5846 5847 5848 5848 5849 5850 5851 5852 5853 5855 5856 5857 5857 5858 5858 5858 5858 5858 5858 5858 5858 5857 5857 5856
5828 5828 5828 5829 5829 5830 5830 5831 5832 5833 5833 5834 5834 5835 5836 5837 5838 5838 5839 5840 5841 5841 5842 5843 5844 5845 5846 5848 5848 5849 5850 5851 5851 5852 5852 5852 5852 5851 5851 5851 5850 5850 5849
5821 5821 5821 5821 5822 5823 5823 5824 5824 5825 5825 5826 5826 5827 5828 5829 5830 5831 5832 5833 5834 5835 5835 5837 5837 5838 5840 5841 5842 5843 5844 5844 5845 5845 5845 5845 5845 5844 5844 5843 5843 5842 5841
5814 5813 5814 5814 5815 5815 5816 5816 5817 5817 5818 5818 5819 5819 5820 5821 5822 5824 5825 5826 5827 5827 5828 5830 5831 5832 5833 5834 5835 5836 5837 5837 5838 5838 5838 5838 5838 5837 5836 5836 5835 5834 5833
5807 5806 5806 5806 5807 5807 5808 5809 5809 5810 5810 5811 5811 5812 5812 5814 5815 5816 5817 5818 5819 5820 5821 5823 5824 5825 5826 5827 5828 5829 5829 5830 5830 5830 5831 5830 5830 5830 5829 5828 5827 5826 5824
5799 5799 5798 5798 5799 5800 5800 5801 5801 5802 5802 5803 5803 5804 5805 5806 5807 5808 5809 5811 5812 5813 5814 5816 5817 5818 5819 5819 5820 5821 5822 5822 5823 5823 5823 5823 5822 5822 5821 5820 5818 5817 5815
5792 5791 5791 5791 5791 5792 5793 5793 5794 5794 5795 5795 5795 5796 5796 5798 5799 5800 5802 5803 5804 5806 5807 5808 5810 5811 5811 5812 5813 5813 5814 5815 5815 5815 5815 5814 5814 5813 5812 5811 5810 5808 5806
5785 5784 5783 5784 5784 5784 5785 5786 5786 5786 5787 5787 5787 5788 5788 5790 5791 5792 5793 5795 5797 5798 5800 5801 5802 5803 5804 5804 5805 5806 5807 5807 5807 5807 5807 5806 5805 5805 5804 5802 5801 5799 5797
5778 5777 5777 5777 5777 5777 5778 5778 5779 5779 5779 5779 5779 5780 5781 5782 5783 5784 5786 5787 5789 5791 5792 5793 5794 5796 5796 5797 5798 5798 5799 5800 5799 5799 5799 5798 5797 5796 5795 5794 5793 5791 5789
5770 5770 5770 5770 5770 5770 5771 5771 5771 5771 5772 5771 5772 5772 5773 5774 5775 5776 5778 5780 5781 5783 5784 5786 5787 5788 5789 5790 5790 5791 5791 5792 5792 5791 5791 5790 5789 5788 5787 5786 5784 5783 5781
5763 5762 5762 5762 5762 5762 5763 5763 5764 5764 5764 5764 5764 5765 5766 5767 5768 5769 5771 5772 5774 5775 5777 5778 5779 5780 5782 5782 5783 5784 5784 5784 5784 5784 5784 5783 5782 5781 5780 5778 5777 5775 5773
5756 5755 5755 5755 5754 5755 5755 5756 5756 5756 5757 5757 5757 5758 5759 5760 5761 5762 5763 5765 5766 5768 5769 5770 5771 5773 5774 5775 5776 5777 5777 5777 5777 5777 5777 5776 5775 5774 5773 5771 5770 5768 5766
5749 5748 5748 5747 5747 5747 5747 5748 5748 5749 5749 5750 5750 5751 5752 5753 5754 5755 5756 5757 5759 5760 5762 5763 5765 5766 5767 5769 5769 5770 5771 5771 5771 5771 5771 5770 5769 5768 5766 5764 5763 5761 5760
5741 5741 5740 5740 5740 5740 5740 5740 5741 5741 5742 5743 5743 5744 5745 5746 5747 5748 5749 5751 5752 5753 5755 5756 5758 5759 5761 5762 5763 5764 5765 5765 5765 5765 5765 5764 5763 5762 5760 5758 5757 5755 5753
5734 5733 5733 5733 5733 5733 5733 5733 5734 5734 5735 5736 5737 5737 5738 5739 5740 5742 5743 5744 5745 5747 5749 5750 5752 5753 5755 5756 5757 5758 5759 5759 5760 5760 5759 5758 5758 5756 5755 5753 5752 5750 5748
5727 5726 5726 5726 5726 5726 5726 5727 5727 5728 5729 5730 5731 5732 5733 5734 5735 5736 5737 5738 5740 5741 5743 5745 5746 5748 5749 5750 5752 5752 5753 5754 5754 5754 5754 5753 5752 5751 5750 5748 5747 5745 5743
5720 5720 5719 5719 5719 5720 5720 5720 5721 5722 5723 5724 5725 5726 5728 5729 5730 5731 5733 5734 5735 5736 5738 5740 5742 5743 5744 5745 5747 5748 5748 5749 5749 5749 5749 5748 5747 5747 5745 5744 5743 5741 5739
5714 5714 5714 5713 5713 5714 5714 5715 5716 5717 5718 5719 5720 5722 5723 5725 5726 5727 5729 5730 5731 5732 5734 5735 5737 5738 5740 5741 5742 5743 5744 5745 5745 5745 5744 5744 5744 5743 5742 5740 5739 5737 5735
5709 5709 5708 5708 5708 5709 5709 5710 5711 5712 5714 5715 5717 5718 5720 5721 5722 5724 5725 5727 5728 5729 5731 5732 5733 5735 5736 5737 5738 5739 5740 5741 5741 5741 5741 5741 5740 5740 5739 5737 5736 5734 5732